This demonstration page uses our WeatherBlox Daily Observations layout. Learn more.

Left ArrowRight Arrow

39.51506, -84.39828

Hourly Observations for April 25, 2015

Temp ( °F °C ) Dew Point ( °F °C ) Humidity (%) Winds ( mph kmh ) Pressure ( in mb ) Visibility ( mi km ) Precip ( " mm )
12:15 am 00:15 Cloudy 55 12.5 37 2.9 52 52 N N/A 29.91 1013 10 16.0934 N/A
12:35 am 00:35 Cloudy 55 12.5 38 3.1 53 53 N 5 7 29.94 1014 10 16.0934 N/A
12:55 am 00:55 Cloudy with Light Rain 55 12.5 38 3.3 54 54 NE 3 6 29.91 1013 10 16.0934 N/A
1:15 am 01:15 Cloudy 55 12.5 40 4.6 59 59 NNE 6 9 29.91 1013 10 16.0934 N/A
1:35 am 01:35 Cloudy 55 12.5 37 2.8 52 52 ENE 5 7 29.91 1013 10 16.0934 N/A
1:55 am 01:55 Cloudy 55 12.5 36 2.1 49 49 ENE 3 6 29.91 1013 10 16.0934 N/A
2:15 am 02:15 Cloudy 55 12.5 32 -0.1 42 42 ENE 3 6 29.91 1013 10 16.0934 N/A
2:35 am 02:35 Cloudy 55 12.5 33 0.6 44 44 ENE 3 6 29.91 1013 10 16.0934 N/A
2:55 am 02:55 Cloudy 55 12.5 33 0.5 44 44 ENE 3 6 29.91 1013 10 16.0934 N/A
3:15 am 03:15 Cloudy with Light Rain 55 12.5 33 0.5 44 44 E 3 6 29.91 1013 10 16.0934 N/A
3:35 am 03:35 Cloudy 55 12.5 36 2.1 49 49 ENE 3 6 29.91 1013 10 16.0934 N/A
3:55 am 03:55 Cloudy 55 12.5 36 2.1 49 49 E 3 6 29.88 1012 10 16.0934 N/A
4:15 am 04:15 Cloudy with Drizzle 54 12.4 39 4 57 57 NNE 5 7 29.88 1012 10 16.0934 N/A
4:35 am 04:35 Cloudy 55 12.5 37 2.7 52 52 N N/A 29.88 1012 10 16.0934 N/A
4:55 am 04:55 Cloudy 52 11 39 3.9 62 62 N N/A 29.88 1012 10 16.0934 N/A
5:15 am 05:15 Cloudy 52 11 38 3.5 60 60 N N/A 29.88 1012 10 16.0934 N/A
5:35 am 05:35 Cloudy 55 12.5 37 2.6 51 51 N N/A 29.85 1011 10 16.0934 N/A
5:55 am 05:55 Cloudy 55 12.5 36 2.2 50 50 E 3 6 29.85 1011 10 16.0934 N/A
6:15 am 06:15 Cloudy with Light Rain 55 12.5 33 0.7 45 45 E 5 7 29.85 1011 10 16.0934 N/A
6:35 am 06:35 Cloudy 55 12.5 33 0.5 44 44 N N/A 29.85 1011 10 16.0934 N/A
6:55 am 06:55 Cloudy 55 12.5 35 1.5 47 47 N N/A 29.85 1011 10 16.0934 N/A
7:15 am 07:15 Cloudy 55 12.5 33 0.8 45 45 ESE 5 7 29.85 1011 10 16.0934 N/A
7:35 am 07:35 Cloudy 55 12.5 32 -0.2 42 42 ESE 6 9 29.85 1011 10 16.0934 N/A
7:55 am 07:55 Cloudy 55 12.5 31 -0.7 40 40 SE 7 11 29.85 1011 10 16.0934 N/A
8:15 am 08:15 Cloudy 55 12.5 31 -0.5 41 41 SSE 8 13 29.85 1011 10 16.0934 N/A
8:35 am 08:35 Cloudy 55 12.5 30 -1.3 39 39 SSE 7 11 29.83 1010 10 16.0934 N/A
8:55 am 08:55 Cloudy 55 12.5 31 -0.7 40 40 ESE 5 7 29.83 1010 10 16.0934 N/A
9:15 am 09:15 Cloudy 55 12.5 31 -0.4 41 41 E 8 13 29.83 1010 10 16.0934 N/A
9:35 am 09:35 Cloudy 55 12.5 33 0.4 44 44 E 8 13 29.83 1010 10 16.0934 N/A
9:55 am 09:55 Cloudy 55 12.5 33 0.7 45 45 ENE 8 13 29.83 1010 10 16.0934 N/A
10:15 am 10:15 Cloudy 55 12.5 32 0.2 43 43 E 8 13 29.83 1010 10 16.0934 N/A
10:35 am 10:35 Cloudy 55 12.5 32 0.1 43 43 E 7 11 29.8 1009 10 16.0934 N/A
10:55 am 10:55 Cloudy 55 12.5 32 0.1 43 43 E 10 17 29.8 1009 10 16.0934 N/A
11:15 am 11:15 Cloudy with Light Rain 55 12.5 35 1.4 47 47 E 10 17 29.8 1009 10 16.0934 N/A
11:35 am 11:35 Cloudy with Light Snow 49 9.6 36 2 59 59 ENE 10 17 29.8 1009 5 8.0467 N/A
11:55 am 11:55 Cloudy with Light Snow 49 9.6 40 4.2 69 69 ENE 10 17 29.8 1009 5 8.0467 N/A
12:15 pm 12:15 Cloudy with Light Snow 49 9.6 41 5 73 73 ENE 9 15 29.8 1009 5 8.0467 N/A
12:35 pm 12:35 Cloudy with Light Snow 49 9.6 43 6.1 79 79 ENE 12 19 29.77 1008 4 6.43736 N/A
12:55 pm 12:55 Cloudy 49 9.6 43 6.1 79 79 ENE 13 20 29.77 1008 7 11.26538 N/A
1:15 pm 13:15 Cloudy 48 9.1 42 5.3 77 77 ENE 13 20 29.77 1008 10 16.0934 N/A
1:35 pm 13:35 Cloudy 47 8.2 39 4 75 75 E 15 24 29.74 1007 10 16.0934 N/A
1:55 pm 13:55 Cloudy with Light Snow 44 6.8 38 3.4 79 79 ENE 13 20 29.74 1007 1.75 2.816345 N/A
2:15 pm 14:15 Cloudy with Light Snow 43 6.1 38 3.4 83 83 ENE 12 19 29.74 1007 5 8.0467 N/A
2:35 pm 14:35 Cloudy with Light Snow 43 6 38 3.5 84 84 NE 10 17 29.74 1007 4 6.43736 N/A
2:55 pm 14:55 Cloudy with Light Snow 42 5.7 38 3.5 86 86 E 13 20 29.74 1007 1.5 2.41401 N/A
3:15 pm 15:15 Cloudy with Light Snow 42 5.5 38 3.2 85 85 E 9 15 29.74 1007 1.75 2.816345 N/A
3:35 pm 15:35 Cloudy with Light Snow 42 5.8 38 3.6 86 86 ENE 9 15 29.74 1007 1.75 2.816345 N/A
3:55 pm 15:55 Cloudy with Light Snow 42 5.8 39 3.7 87 87 NNE 9 15 29.77 1008 1.5 2.41401 N/A
4:15 pm 16:15 Cloudy with Light Snow 43 6.1 39 4.1 87 87 NE 6 9 29.77 1008 1.5 2.41401 N/A
4:35 pm 16:35 Cloudy with Light Snow 43 6.3 40 4.3 87 87 ENE 18 30 29.68 1005 3 4.82802 N/A
4:55 pm 16:55 Cloudy with Mist and Fog 47 8.2 43 6.2 87 87 ENE 9 15 29.71 1006 5 8.0467 N/A
5:15 pm 17:15 Cloudy 49 9.6 45 7.2 85 85 NE 10 17 29.74 1007 10 16.0934 N/A
5:35 pm 17:35 Cloudy 49 9.6 44 6.8 83 83 ENE 13 20 29.74 1007 10 16.0934 N/A
5:55 pm 17:55 Cloudy 49 9.6 44 6.5 81 81 E 13 20 29.71 1006 10 16.0934 N/A
6:15 pm 18:15 Mostly Cloudy 49 9.6 43 6.1 79 79 ENE 14 22 29.71 1006 10 16.0934 N/A
6:35 pm 18:35 Mostly Cloudy 49 9.6 43 6.1 79 79 NE 15 24 29.71 1006 10 16.0934 N/A
6:55 pm 18:55 Cloudy 49 9.6 43 6.2 80 80 ENE 13 20 29.71 1006 10 16.0934 N/A
7:15 pm 19:15 Cloudy 49 9.6 43 6 78 78 ENE 13 20 29.71 1006 10 16.0934 N/A
7:35 pm 19:35 Cloudy 49 9.6 43 6 78 78 ENE 14 22 29.71 1006 10 16.0934 N/A
7:55 pm 19:55 Cloudy 49 9.6 43 6 78 78 ENE 13 20 29.71 1006 10 16.0934 N/A
8:15 pm 20:15 Cloudy 49 9.6 43 6 78 78 ENE 8 13 29.71 1006 10 16.0934 N/A
8:35 pm 20:35 Cloudy 49 9.6 43 5.9 78 78 NE 14 22 29.71 1006 10 16.0934 N/A
8:55 pm 20:55 Cloudy 49 9.6 43 6 78 78 ENE 13 20 29.71 1006 10 16.0934 N/A
9:15 pm 21:15 Cloudy 49 9.6 42 5.6 76 76 ENE 14 22 29.71 1006 10 16.0934 N/A
9:35 pm 21:35 Cloudy 49 9.6 42 5.3 75 75 ENE 16 26 29.71 1006 10 16.0934 N/A
9:55 pm 21:55 Cloudy 49 9.6 41 5.2 74 74 NE 14 22 29.71 1006 10 16.0934 N/A
10:15 pm 22:15 Cloudy 49 9.6 42 5.3 75 75 ENE 13 20 29.74 1007 10 16.0934 N/A
10:35 pm 22:35 Cloudy 49 9.6 42 5.5 76 76 ENE 13 20 29.74 1007 10 16.0934 N/A
10:55 pm 22:55 Cloudy 49 9.6 42 5.5 76 76 NE 12 19 29.74 1007 10 16.0934 N/A
11:15 pm 23:15 Cloudy 49 9.6 42 5.3 75 75 NE 12 19 29.74 1007 10 16.0934 N/A
11:35 pm 23:35 Cloudy 49 9.6 42 5.6 76 76 NE 12 19 29.74 1007 10 16.0934 N/A
11:55 pm 23:55 Cloudy 49 9.6 43 5.9 78 78 NE 9 15 29.74 1007 10 16.0934 N/A

Powered by AerisWeather